#timestamp,LO_Frequency,Hit,StdDev 
1548892815.8,286046993.1,N
1548892835.6,286046983.8,N
1548892855.5,286046981.9,N
1548892875.3,286046975.5,N
1548892895.2,286046985.2,N
1548892915.9,286046988.9,N
1548892935.7,286046993.9,N
1548892955.6,286046987.4,N
1548892975.4,286046993.2,N
1548892995.3,286046994.5,N
1548893015.1,286046994.0,N
1548893016.0,286046994.0,N
1548893035.8,286046999.6,N
1548893055.7,286047000.8,N
1548893075.5,286046988.9,N
1548893095.3,286046986.8,N
1548893115.2,286046991.1,N
1548893135.0,286046998.2,N
1548893135.9,286046998.2,N
1548893155.8,286047000.7,N
1548893175.6,286046987.9,N
1548893195.4,286046977.9,N
1548893215.3,286046981.6,N
1548893235.1,286046976.1,N
1548893255.9,286046980.4,N
1548893275.7,286046974.2,N
1548893295.5,286046977.1,N
1548893315.4,286046981.5,N
1548893335.2,286046989.7,N
1548893355.0,286046989.6,N
1548893356.0,286046989.6,N
1548893375.8,286046992.4,N
1548893395.6,286046991.9,N
1548893415.5,286046996.7,N
1548893435.3,286046986.5,N
1548893455.1,286046992.5,N
1548893475.9,286046987.4,N
1548893495.7,286046993.7,N
1548893515.6,286046989.4,N
1548893535.4,286046983.4,N
1548893555.2,286046973.5,Y
1548893575.1,286046987.9,P
1548893576.0,286046987.9,P
1548893595.8,286046988.6,P
1548893615.7,286046996.2,Y
1548893635.5,286047007.3,P
1548893655.3,286047015.0,N
1548893675.2,286047016.4,N
1548893695.0,286047012.3,N
1548893695.9,286047012.3,N
1548893715.8,286047018.1,N
1548893735.6,286047017.3,N
1548893755.4,286047014.5,N
1548893775.3,286047007.8,N
1548893795.1,286046996.6,N
1548893815.8,286047005.8,N
1548893835.7,286046989.6,N
1548893855.5,286046984.2,N
1548893875.4,286046981.0,N
1548893895.2,286046986.8,N
1548893915.0,286047001.2,N
1548893915.9,286047001.2,N
1548893935.8,286047014.0,N
1548893955.6,286047021.9,N
1548893975.5,286047028.1,N
1548893995.3,286047025.4,N
1548894015.1,286047031.4,N
1548894035.9,286047025.5,N
1548894055.7,286047026.0,N
1548894075.5,286047027.5,N
1548894095.4,286047028.3,N
1548894115.2,286047027.1,N
1548894135.1,286047023.3,N
1548894136.0,286047023.3,N
1548894155.8,286047015.7,N
1548894175.6,286047013.0,N
1548894195.5,286047021.8,N
1548894215.3,286047011.0,N
1548894235.2,286047005.0,N
1548894255.9,286047005.7,N
1548894275.7,286047006.5,N
1548894295.6,286047015.6,N
1548894315.4,286047016.6,N
1548894335.2,286047019.9,N
1548894355.1,286047024.0,N
1548894356.0,286047024.0,N
1548894375.8,286047036.8,N
1548894395.7,286047042.8,Y
1548894415.5,286047024.9,P
1548894435.3,286047022.3,P
1548894455.2,286047019.5,P
1548894475.0,286047000.2,N
1548894475.9,286047000.2,N
1548894495.8,286046991.1,N
1548894515.6,286046998.6,N
1548894535.4,286047009.2,N
1548894555.3,286047007.7,N
1548894575.1,286047002.5,N
1548894595.8,286046999.7,N
1548894615.7,286047000.8,N
1548894635.5,286047011.0,N
1548894655.4,286047021.0,N
1548894675.2,286047024.8,N
1548894695.0,286047031.5,N
1548894695.9,286047031.5,N
1548894715.8,286047031.5,N
1548894735.6,286047013.2,N
1548894755.5,286047008.0,N
1548894775.3,286047009.2,N
1548894795.1,286047007.0,N
1548894815.9,286047015.1,N
1548894835.7,286047019.4,N
1548894855.5,286047025.9,N
1548894875.4,286047028.3,N
1548894895.2,286047032.0,N
1548894915.1,286047029.6,N
1548894916.0,286047029.6,N
1548894935.8,286047034.6,N
1548894955.6,286047023.5,N
1548894975.5,286047025.6,N
1548894995.3,286047017.6,N
1548895015.2,286047004.8,N
1548895035.9,286047002.7,N
1548895055.7,286046994.5,N
1548895075.6,286046993.3,N
1548895095.4,286047005.2,N
1548895115.2,286046998.9,N
1548895135.1,286046988.4,N
1548895136.0,286046988.4,N
1548895155.8,286046988.2,N
1548895175.7,286046984.4,N
1548895195.5,286046982.7,N
1548895215.3,286046987.4,N
1548895235.2,286046995.4,N
1548895255.0,286047002.7,N
1548895255.9,286047002.7,N
1548895275.8,286047009.0,N
1548895295.6,286046997.9,N
1548895315.5,286046987.4,N
1548895335.3,286046991.4,N
1548895355.1,286046991.1,N
1548895375.9,286046991.0,N
1548895395.7,286046983.1,N
1548895415.6,286046980.4,N
1548895435.4,286046986.3,N
1548895455.2,286046991.5,N
1548895475.1,286046980.7,N
1548895476.0,286046980.7,N
1548895495.8,286046978.5,N
1548895515.7,286046986.8,N
1548895535.5,286046985.4,N
1548895555.3,286046980.3,N
1548895575.2,286046984.7,N
1548895595.0,286046991.6,N
1548895595.9,286046991.6,N
1548895615.8,286046995.1,N
1548895635.6,286046982.9,N
1548895655.4,286046978.9,N
1548895675.3,286046984.6,N
1548895695.1,286046984.5,N
1548895715.8,286046988.6,N
1548895735.7,286046982.2,N
1548895755.8,286046984.6,N
1548895775.6,286046980.9,N
1548895795.5,286046976.1,Y
1548895815.3,286046995.3,P
1548895835.2,286046988.0,P
1548895855.0,286046989.7,N
1548895855.9,286046989.7,Y
1548895875.7,286047000.9,P
1548895895.6,286047005.7,N
1548895915.4,286047003.0,N
1548895935.3,286047007.8,N
1548895955.1,286047020.3,Y
1548895975.8,286047010.9,P
1548895995.7,286047009.0,N
1548896015.5,286047010.5,N
1548896035.4,286047023.5,Y
1548896055.2,286047019.5,P
1548896075.0,286047029.6,P
1548896075.9,286047029.6,P
1548896095.8,286047034.2,Y
1548896115.6,286047005.1,P
1548896135.5,286046994.3,N
1548896155.3,286046997.7,N
1548896175.1,286047000.6,N
1548896195.9,286046988.7,N
1548896215.7,286046982.2,N
1548896235.5,286046991.7,N
1548896255.4,286046976.2,N
1548896275.2,286046980.9,N
1548896295.1,286046982.1,N
1548896296.0,286046982.1,N
1548896315.8,286046988.6,N
1548896335.6,286046992.6,N
1548896355.5,286047000.8,N
1548896375.3,286046996.9,N
1548896395.2,286047005.6,N
